This is the latest recevied weather packets stored in our database for station/object KK4KTV-13. If no packets are shown the sender has not sent any weather packets the latest 10 day(s).
| Time | Temp. | Humidity | Pressure | Rain* | Wind** | Luminosity | Snow |
|---|---|---|---|---|---|---|---|
| 1777181218 | 11.11° C | 99% | 1011 hPa | 0 mm | - | 0 W/m² | - |
| 1777180913 | 11.11° C | 99% | 1011.2 hPa | 0 mm | - | 0 W/m² | - |
| 1777180610 | 11.67° C | 99% | 1011.2 hPa | 0 mm | - | 0 W/m² | - |
| 1777180307 | 11.67° C | 99% | 1011.1 hPa | 0 mm | - | 0 W/m² | - |
| 1777180003 | 11.67° C | 99% | 1011.1 hPa | 0 mm | - | 0 W/m² | - |
| 1777179700 | 11.11° C | 98% | 1011.3 hPa | 0 mm | - | 0 W/m² | - |
| 1777179399 | 11.11° C | 98% | 1011 hPa | 0 mm | - | 0 W/m² | - |
| 1777179098 | 11.11° C | 98% | 1010.9 hPa | 0 mm | - | 0 W/m² | - |
| 1777178796 | 11.67° C | 98% | 1010.7 hPa | 0 mm | - | 0 W/m² | - |
| 1777178492 | 11.67° C | 98% | 1010.7 hPa | 0 mm | - | 0 W/m² | - |
| 1777178188 | 11.67° C | 98% | 1011 hPa | 0 mm | - | 0 W/m² | - |
| 1777177881 | 11.67° C | 98% | 1010.9 hPa | 0 mm | - | 0 W/m² | - |
| 1777177576 | 11.67° C | 97% | 1010.7 hPa | 0 mm | - | 0 W/m² | - |
| 1777177272 | 11.67° C | 97% | 1011 hPa | 0 mm | - | 0 W/m² | - |
| 1777176969 | 11.67° C | 97% | 1010.8 hPa | 0 mm | - | 0 W/m² | - |
| 1777176665 | 12.22° C | 97% | 1010.7 hPa | 0 mm | - | 0 W/m² | - |
| 1777176362 | 12.22° C | 97% | 1011.1 hPa | 0 mm | - | 0 W/m² | - |
| 1777176059 | 12.22° C | 97% | 1010.9 hPa | 0 mm | - | 0 W/m² | - |
| 1777175751 | 12.22° C | 97% | 1010.9 hPa | 0 mm | - | 0 W/m² | - |
| 1777175446 | 12.78° C | 97% | 1011 hPa | 0 mm | - | 0 W/m² | - |
| 1777175140 | 12.22° C | 97% | 1010.8 hPa | 0 mm | - | 0 W/m² | - |
| 1777174838 | 12.22° C | 96% | 1011 hPa | 0 mm | - | 0 W/m² | - |
| 1777174534 | 12.78° C | 96% | 1010.9 hPa | 0 mm | - | 0 W/m² | - |
| 1777174234 | 12.78° C | 96% | 1010.9 hPa | 0 mm | - | 0 W/m² | - |
| 1777173929 | 12.78° C | 96% | 1011.1 hPa | 0 mm | - | 0 W/m² | - |
* Rain latest hour (hover to see other rain measurements)
** Current wind speed in m/s (hover to see current wind gust speed)